User: anonymous
Location: Unspecified
(0.0000°N, 0.0000°E)
Time: 22:26:07
(UTC+02:00)
Language:

YAOGAN 3 - Orbit

View from above orbital plane
View from above orbital plane
View from above satellite
View from above satellite

Ground track
Ground track

The orbit data is extracted from the following two-line orbital elements,

1 32289U 07055A   14232.51904108 -.00000046  00000-0  80198-6 0  5013
2 32289 097.9439 223.9721 0002150 092.0383 268.1065 14.81940795366052
Epoch (UTC): 20 August 2014 12:27:25
Eccentricity: 0.0002150
inclination: 97.9439°
perigee height: 622 km
apogee height: 625 km
right ascension of ascending node: 223.9721°
argument of perigee: 92.0383°
revolutions per day: 14.81940795
mean anomaly at epoch: 268.1065°
orbit number at epoch: 36605

The dashed part of the orbit path shows where the satellite is in the earth's shadow,  

DLR